Flag for United Arab Emirates Weather past 2 weeks in Abu Dhabi, Abu Dhabi, United Arab Emirates

Now
95 °F

Passing clouds.


Feels Like: 107 °F
Forecast: 90 / 97 °F
Wind: 5 mph from Northwest

Location: Abu Dhabi Bateen Airport

Current Time: Oct 2, 2014 at 11:39:09 AM

Latest Report: Oct 2, 2014 at 11:00 AM


Visibility: N/A

Pressure: 29.89 "Hg

Humidity: 53%

Dew point: 75 °F

Location of Abu DhabiLocation

Historic Weather in Abu Dhabi — Graph

°F

Abu Dhabi temperature yesterday

Maximum temperature yesterday: 99 °F (at 2:00 PM)
Minimum temperature yesterday: 82 °F (at 6:00 AM)
Average temperature yesterday: 91 °F

Past Weeks' High & Low Weather Summary

 TemperatureHumidityPressure
High108 °F (Sep 22, 2:00 PM)89% (Sep 22, 6:00 AM)29.89 "Hg (Sep 22, 6:00 AM)
Low82 °F (Sep 22, 6:00 AM)16% (Sep 22, 2:00 PM)29.56 "Hg (Sep 17, 3:00 PM)
Average92 °F59%29.73 "Hg
* Reported Sep 17 10:00 AM — Oct 2 10:00 AM, Abu Dhabi, Weather by CustomWeather, © 2014

Note: Actual official high and low records may vary slightly from our data, if they occured in-between our weather recording intervals... More about our weather records

Advertising

Abu Dhabi weather history for previous 24 hours

 ConditionsComfort  
Time TempWeatherWind HumidityBarometerVisibility
10:00 AM
Oct 2
93 °FPassing clouds.3 mph59%29.89 "HgN/A
9:00 AM88 °FPassing clouds.5 mph66%29.89 "HgN/A
8:00 AM86 °FClear.8 mph70%29.89 "Hg6 mi
7:00 AM84 °FSunny.3 mph79%29.86 "Hg10 mi
6:00 AM84 °FWarm.N/A74%29.83 "HgN/A
5:00 AM84 °FClear.No wind74%29.83 "Hg10 mi
4:00 AM86 °FClear.3 mph70%29.83 "Hg10 mi
3:00 AM86 °FClear.5 mph70%29.80 "Hg10 mi
2:00 AM88 °FClear.5 mph66%29.80 "Hg10 mi
1:00 AM88 °FClear.5 mph75%29.80 "Hg10 mi
12:00 AM90 °FClear.5 mph67%29.83 "Hg10 mi
11:00 PM
Oct 1
90 °FClear.5 mph67%29.86 "Hg10 mi
10:00 PM91 °FClear.7 mph59%29.83 "Hg10 mi
9:00 PM91 °FClear.8 mph63%29.83 "Hg10 mi
8:00 PM91 °FClear.8 mph63%29.83 "Hg10 mi
7:00 PM91 °FClear.10 mph67%29.80 "Hg10 mi
6:00 PM93 °FSunny.10 mph56%29.80 "Hg10 mi
5:00 PM95 °FSunny.10 mph53%29.80 "Hg10 mi
4:00 PM97 °FPassing clouds.12 mph44%29.77 "HgN/A
3:00 PM99 °FPassing clouds.9 mph29%29.80 "HgN/A
2:00 PM99 °FPassing clouds.9 mph29%29.80 "HgN/A
1:00 PM97 °FPassing clouds.6 mph39%29.83 "HgN/A
12:00 PM97 °FPassing clouds.5 mph42%29.86 "HgN/A
11:00 AM95 °FPassing clouds.5 mph47%29.86 "HgN/A
Weather by CustomWeather, © 2014

See weather overviewHow to use our weather pages